SITRO-AIS 7 (FARTUSHNIY)

Last updated on Wed Nov 05 2025 00:03:48 GMT+0000 (Coordinated Universal Time)

1 57194U 23091AE 25308.61315441 .00006806 00000+0 30046-3 0 9999 2 57194 97.5406 5.7996 0013204 166.8146 193.3438 15.22004587130073
UTC large
Height (km)
Speed (km/s)
/
Latitude / Longitude
Inclination (degrees)
Orbital Period (minutes)
Azimuth
Elevation
Range (km)
Doppler Factor

Next 0 passes for location: London (51.5072 / 0.1276)

Sorry there are no passes over London.